Location: Banff
(51.1670°N, 115.5670°W)
Time: 20:00:37
(UTC-06:00)

Daily predictions for brighter satellites

Satellite Brightness Start Highest point End
(mag) Time Altitude Azimuth Time Altitude Azimuth Time Altitude Azimuth
COSMOS 2455 2.9 22:21:55 10° SSW 22:27:55 77° ESE 22:33:58 10° NE
CZ-4B R/B 3.8 22:26:59 10° NNE 22:31:56 49° E 22:36:59 10° S
MetOp-B 4.3 22:28:26 10° SSE 22:33:48 83° WSW 22:39:13 10° NNW
Cosmos 1766 3.6 22:30:08 10° N 22:34:06 52° ENE 22:38:01 10° SSE
Cosmos 2369 Rocket 2.7 22:28:40 10° NW 22:34:14 57° WSW 22:39:43 10° S
Cosmos 1825 Rocket 3.6 22:34:43 10° S 22:39:09 73° E 22:43:34 10° NNE
Cosmos 1758 4.4 22:36:26 10° N 22:40:12 33° ENE 22:43:56 10° SE
Cosmos 1190 Rocket 4.1 22:36:36 10° S 22:41:49 62° ESE 22:47:05 10° NNE
Landsat 7 4.3 22:37:41 10° SE 22:42:15 47° ENE 22:46:50 10° N
CZ-4 R/B 4.4 22:37:37 10° NNE 22:42:23 43° E 22:47:09 10° S
YAOGAN 6 2.8 22:41:50 10° S 22:45:34 79° WSW 22:49:20 10° NNW
DELTA 2 DEB (DPAF) 4.4 22:43:29 10° SSE 22:47:55 61° ENE 22:52:22 10° N
H-2A R/B 2.6 22:45:39 10° SE 22:50:25 46° ENE 22:55:20 10° N
IGS 5A 4.4 22:49:12 10° SE 22:52:59 35° ENE 22:56:49 10° N
NOAA 11 4.2 22:48:03 10° SSE 22:53:28 82° ENE 22:58:56 10° NNW
SPOT 5 3.9 22:53:05 10° SSW 22:57:06 36° W 23:01:09 10° NNW
Cosmos 2084 3.5 22:53:13 10° NW 22:57:17 66° SW 23:01:12 12° SSE
Terra 2.3 22:53:35 10° SE 22:58:03 48° ENE 23:02:39 10° N
H-2A R/B 4.4 22:55:07 10° SW 22:58:21 20° W 23:01:40 10° NW
UNK 4.3 22:52:55 10° NNE 22:58:23 90° WNW 23:04:06 10° SSW
ATLAS 3B R/B 3.0 22:50:54 10° SSW 22:58:29 65° SE 23:05:51 10° NE
Lacrosse 4 Rocket 1.3 22:54:33 10° SSW 22:58:34 63° ESE 23:02:40 10° NE
Cosmos 676 Rocket 4.2 22:53:59 10° S 22:59:10 54° ESE 23:04:21 10° NNE
SPOT 1/Viking Rocket 3.8 22:54:26 10° S 22:59:35 69° WSW 23:04:44 10° NNW
Cosmos 1470 4.4 22:57:19 10° NNE 23:00:22 21° ENE 23:03:21 10° ESE
SAR-Lupe-2 4.1 22:57:57 12° SE 23:01:07 47° ENE 23:04:35 10° N
Cosmos 1805 3.8 22:58:11 10° N 23:02:00 45° ENE 23:05:21 13° SSE
Lacrosse 5 3.0 23:02:19 10° WNW 23:07:12 45° N 23:12:04 10° E
USA 234 3.6 23:09:10 12° SE 23:15:11 55° SW 23:21:39 10° WNW
CZ-4C R/B 3.5 23:14:31 11° S 23:18:27 71° WSW 23:22:23 10° NNW
COSMOS 2406 3.7 23:16:04 10° S 23:21:20 40° ESE 23:26:39 10° NE
Cosmos 2221 4.1 23:17:58 10° NNE 23:21:27 23° ENE 23:24:32 12° ESE
SL-27 R/B 2.6 23:18:58 11° S 23:22:00 48° ESE 23:25:15 10° NNE
SL-8 R/B 4.2 23:19:22 10° W 23:23:56 43° SSW 23:27:36 15° SE
Cosmos-2242 3.2 23:20:04 10° NNW 23:24:29 75° W 23:28:28 13° S
Nadezhda 4 Rocket 4.3 23:19:24 12° SSE 23:25:08 53° E 23:31:16 10° NNE
Cosmos 407 Rocket 3.7 23:21:18 10° SSW 23:26:33 77° WNW 23:31:47 10° NNE
Cosmos 1943 Rocket 2.7 23:21:42 10° NW 23:27:06 54° WSW 23:31:58 13° S
Cosmos 1953 Rocket 4.4 23:23:01 10° SSW 23:27:20 52° WNW 23:31:44 10° N
Cosmos 1953 2.4 23:24:46 10° NNW 23:28:46 78° W 23:32:04 15° S
COSMOS 2487 4.1 23:28:09 17° SE 23:29:32 20° E 23:32:16 10° NE
Cosmos 1900 4.4 23:24:39 10° SW 23:29:49 88° SE 23:34:59 10° NE
Lacrosse 5 rocket 3.0 23:29:24 10° WNW 23:33:10 36° N 23:37:08 10° ENE
Cosmos 1656 Rocket 3.7 23:30:07 10° NNW 23:35:51 86° WSW 23:40:20 17° SSE
Cosmos 1707 4.2 23:36:51 16° SE 23:38:45 23° E 23:41:53 10° NE
Cosmos 1943 4.1 23:34:56 10° SW 23:40:29 53° NW 23:46:06 10° NNE
Cosmos 1818 4.0 23:36:06 10° NW 23:41:33 59° NE 23:46:24 13° ESE
USA 238 DEB 3.9 23:36:48 10° SSW 23:43:41 56° SE 23:50:34 10° NE
USA 238 3.9 23:36:55 10° SSW 23:43:47 56° SE 23:50:39 10° NE
Cosmos 1346 Rocket 4.5 23:40:58 10° SW 23:44:32 33° WNW 23:48:10 10° N
CZ-4B R/B 4.0 23:45:11 10° E 23:47:22 15° ENE 23:49:33 10° NNE
Cosmos 1954 Rocket 4.1 23:42:15 10° SSW 23:47:35 84° WNW 23:52:55 10° NNE
Cosmos 1842 3.9 23:46:19 10° SSW 23:50:10 56° WNW 23:54:03 10° N
Cosmos 1607 4.2 23:46:33 10° SSW 23:52:33 50° ESE 23:58:31 10° NE
Cosmos 2208 Rocket 4.4 23:47:35 10° NNW 23:52:39 55° WSW 23:56:31 17° S
